星链-4305 (STARLINK-4305 )

导读

STARLINK-4305是美国SpaceX公司星链卫星互联网项目中的一颗低轨通信卫星,于2022年7月11日发射入轨,属于星链星座大规模部署阶段的组网卫星之一。星链项目旨在通过近地轨道卫星星座,为全球偏远无基础设施覆盖区域,提供高速低延迟的宽带互联网接入服务。该卫星运行于近地轨道,参与构建全球卫星通信网络,推动全球互联覆盖。

Basic Information
目录编号:
53060
目录名称:
STARLINK-4305
国际标识:
2022-077T
轨道中心:
EARTH
卫星名称:
星链-4305
卫星全名:
星链-4305 (STARLINK-4305 )
卫星状态:
在轨 (已飞行1437 天)
发射日期:
2022-07-11 UTC
国别 :
美国 (US)
星等 :
--
Orbit Information
数据来源 国际轨道数据 AOE轨道数据
星历时间 2026-06-17T09:15:28+0800
12小时前
查看轨道信息
2026-06-11T17:00:00+0800
6天前
查看轨道信息
半长轴 6927.592km 6927.61km
偏心率 0.0002432 0.0002057
轨道倾角 97.352° 97.376°
近地点辐角 50.102° 86.150°
升交点赤经 346.985° 341.564°
平近点角 310.042° 119.955°
近地点 547.77km 548.047km
远地点 551.14km 550.899km
周期 95.639分钟 95.639分钟
每日圈数 15.056685 15.056626
Detailed Information
固有亮度:
5
最大亮度:
2.5
卫星平台:
Starlink v1.5
覆盖范围:
全球
运营商:
太空探索技术公司
运营商所在国:
美国
制造商(研发单位):
太空探索技术公司
制造商所在国:
美国
使用方式:
暂无
Satellite Introduction
星链(Starlink)计划是由太空探索技术公司(SpaceX)提出的一个巨型低轨卫星互联网星座项目,计划在2019年至2024年间在太空搭建由约1.2万颗卫星组成的“星链”网络,其中1584颗将部署在地球上空550千米处的近地轨道,并从2020年开始工作。该卫星仍在工作。
2D Orbit Map
3D Orbit Map
Orbit Altitude Analysis Chart
Orbit Inclination Analysis Chart
Orbit Comprehensive Analysis Chart
View Comprehensive Chart